Location: Aalen
(48.8330°N, 10.1000°E)
Time: 00:13:11
(UTC+02:00)

Transit 4A - Pass Details

Date: 02 August 2021
Orbit: 870 x 974 km, 66.8° (Epoch: 26 September)

Event Time Altitude Azimuth Distance (km) Brightness Sun altitude
Rises 02:26:08 0° 240° (WSW) 3,481 - -22.1°
Reaches altitude 10° 02:28:48 10° 248° (WSW) 2,534 - -22.0°
Exits shadow 02:30:38 20° 258° (WSW) 1,934 9.3 -21.9°
Maximum altitude 02:34:16 40° 317° (NW) 1,266 8.8 -21.7°
Drops below altitude 10° 02:39:44 10° 27° (NNE) 2,528 11.3 -21.4°
Sets 02:42:24 0° 35° (NE) 3,471 12.3 -21.3°
